DW8923 Weather Reports


time (UTC)temp
C
wind
direction
speed
KPH
gust
KPH
rain 1hr
cm
rain 24hr
cm
rain mn
cm
humidity
%
barometer
mb
20220629033039 24 37 0.0 1.6 0.00 0.71 0.15 73 1014.3
20220629031551 25 37 0.0 1.6 0.00 0.71 0.15 70 1014.0
20220629030038 25 37 0.0 0.0 0.00 0.71 0.15 67 1013.7
20220629024538 26 37 0.0 0.0 0.00 1.04 0.15 64 1013.5
20220629023037 27 37 0.0 0.0 0.00 1.04 0.15 60 1013.6
20220629021537 27 37 0.0 0.0 0.00 1.04 0.15 57 1013.5
20220629020052 28 37 0.0 1.6 0.00 1.04 0.15 51 1013.6
20220629014536 29 37 0.0 1.6 0.00 1.04 0.15 51 1013.6
20220629013035 29 37 0.0 3.2 0.00 1.04 0.15 46 1013.6
20220629011535 30 307 0.0 4.8 0.00 1.04 0.15 46 1013.7
20220629010034 30 53 1.6 6.4 0.00 1.04 0.15 47 1013.6
20220629004532 30 5 3.2 6.4 0.00 1.04 0.15 48 1013.3
20220629003033 30 351 1.6 3.2 0.00 1.04 0.15 50 1013.2
20220629001531 30 14 1.6 8.0 0.00 1.04 0.15 50 1013.2
20220629000030 30 342 3.2 9.7 0.00 1.04 0.15 50 1013.1
20220628234529 30 347 3.2 9.7 0.00 1.04 0.15 50 1013.2
20220628233028 30 346 4.8 11.3 0.00 1.04 0.15 51 1013.0
20220628231527 30 71 4.8 17.7 0.00 1.04 0.15 51 1013.1
20220628230026 30 347 6.4 14.5 0.00 1.04 0.15 51 1013.2
20220628224525 30 355 9.7 20.9 0.00 1.04 0.15 50 1013.3
20220628223023 30 341 8.0 17.7 0.00 1.04 0.15 51 1013.4
20220628221524 30 346 8.0 19.3 0.00 1.04 0.15 53 1013.4
20220628220026 30 89 6.4 16.1 0.00 1.04 0.15 58 1013.4
20220628214524 30 321 4.8 17.7 0.00 1.04 0.15 59 1013.6
20220628213016 30 355 6.4 16.1 0.00 1.04 0.15 60 1013.6
20220628211521 30 57 4.8 16.1 0.00 1.04 0.15 60 1013.7
20220628210012 30 337 6.4 17.7 0.00 1.04 0.15 59 1014.2
20220628204512 30 9 6.4 19.3 0.00 1.04 0.15 61 1014.6
20220628203009 30 96 4.8 17.7 0.00 1.04 0.15 62 1014.8
20220628201509 30 307 6.4 16.1 0.00 1.04 0.15 63 1014.8
20220628200008 30 14 4.8 19.3 0.00 1.04 0.15 64 1015.0
20220628194507 30 304 8.0 17.7 0.00 1.04 0.15 63 1015.3
20220628193006 30 9 6.4 17.7 0.00 1.04 0.15 63 1015.2
20220628191505 30 346 3.2 19.3 0.00 1.04 0.15 64 1015.3
20220628190003 30 16 4.8 14.5 0.00 1.04 0.15 65 1015.6
20220628184559 29 20 3.2 16.1 0.00 1.04 0.15 67 1016.0
20220628183108 28 35 4.8 14.5 0.00 1.04 0.15 68 1016.3
20220628181552 28 326 1.6 8.0 0.00 1.04 0.15 70 1016.5
20220628180051 28 344 1.6 6.4 0.00 1.04 0.15 71 1016.6
20220628174601 28 97 1.6 11.3 0.00 1.04 0.15 72 1016.6
20220628173048 27 70 3.2 9.7 0.00 1.04 0.15 74 1016.7
20220628171548 27 333 3.2 16.1 0.00 1.04 0.15 75 1016.9
20220628170045 26 115 3.2 9.7 0.00 1.04 0.15 78 1017.0
20220628164540 26 84 3.2 9.7 0.00 1.04 0.15 79 1017.0
20220628163047 26 331 1.6 8.0 0.00 1.04 0.15 80 1017.1
20220628161541 26 11 3.2 9.7 0.00 1.04 0.15 79 1016.9
20220628160035 26 341 1.6 8.0 0.00 1.04 0.15 80 1016.9
20220628154533 25 314 3.2 12.9 0.00 1.04 0.15 82 1016.8
20220628153027 25 299 1.6 6.4 0.00 1.04 0.15 85 1016.9
20220628151523 24 355 3.2 14.5 0.00 1.04 0.15 85 1017.0
20220628150019 24 9 6.4 14.5 0.00 1.04 0.15 85 1016.9
20220628144514 24 355 3.2 9.7 0.00 1.04 0.15 87 1016.8
20220628143010 23 22 1.6 8.0 0.00 1.04 0.15 88 1016.6
20220628141511 23 355 3.2 12.9 0.00 1.04 0.15 89 1016.5
20220628140001 23 355 4.8 12.9 0.00 1.04 0.15 90 1016.4
20220628134605 23 11 4.8 12.9 0.00 1.04 0.15 90 1016.3
20220628133055 22 9 3.2 11.3 0.00 1.04 0.15 92 1016.0
20220628131550 22 340 0.0 14.5 0.00 1.04 0.15 92 1015.8
20220628130046 22 25 4.8 9.7 0.00 1.04 0.15 93 1015.9
20220628124541 22 360 3.2 8.0 0.00 1.04 0.15 93 1015.5
20220628123037 22 349 0.0 6.4 0.00 1.04 0.15 93 1015.2
20220628121537 21 24 1.6 4.8 0.00 1.04 0.15 93 1015.0
20220628120042 21 36 0.0 4.8 0.00 1.04 0.15 94 1014.9
20220628114535 21 35 0.0 3.2 0.00 1.04 0.15 94 1014.7
20220628113034 21 28 0.0 3.2 0.00 1.04 0.15 94 1014.6
20220628111533 21 5 0.0 1.6 0.00 1.04 0.15 94 1014.6
20220628110033 21 46 0.0 4.8 0.00 1.04 0.15 94 1014.4
20220628104531 21 57 1.6 4.8 0.00 1.04 0.15 94 1014.4
20220628103036 21 340 1.6 6.4 0.00 1.04 0.15 94 1014.4
20220628101531 21 5 0.0 4.8 0.00 1.04 0.15 94 1014.4
20220628100033 21 21 1.6 4.8 0.00 1.04 0.15 93 1014.5
20220628094530 21 39 0.0 3.2 0.00 1.04 0.15 93 1014.3
20220628093029 21 289 0.0 3.2 0.00 1.04 0.15 93 1014.1
20220628091537 21 287 0.0 3.2 0.00 1.04 0.15 93 1014.2
20220628090026 21 296 0.0 3.2 0.00 1.04 0.15 93 1014.4
20220628084529 21 289 0.0 4.8 0.00 1.04 0.15 93 1014.7
20220628083028 21 274 0.0 3.2 0.00 1.04 0.15 93 1014.9
20220628081519 21 292 1.6 6.4 0.00 1.04 0.15 94 1015.1
20220628080019 21 269 1.6 6.4 0.00 1.04 0.15 94 1015.1
20220628074521 21 319 3.2 8.0 0.00 1.04 0.15 94 1015.3
20220628073019 21 274 4.8 16.1 0.03 1.04 0.15 94 1015.3
20220628071515 21 313 6.4 14.5 0.03 1.04 0.15 94 1015.7
20220628070015 21 306 8.0 16.1 0.03 1.04 0.15 94 1015.7
20220628064515 21 320 8.0 19.3 0.05 1.04 0.15 94 1015.6
20220628063018 21 245 4.8 12.9 0.05 1.02 0.13 94 1015.5
20220628061521 21 305 1.6 6.4 0.08 1.02 0.13 94 1015.8
20220628060010 21 224 1.6 12.9 0.13 1.02 0.13 94 1015.5
20220628054507 21 329 3.2 9.7 0.15 0.99 0.10 94 1015.7
20220628053006 21 270 3.2 8.0 0.15 0.97 0.08 94 1016.0
20220628051508 21 223 0.0 6.4 0.20 0.94 0.05 94 1016.3
20220628050100 22 267 1.6 6.4 0.25 0.91 0.03 94 1016.5
20220628044558 22 257 1.6 4.8 0.23 0.84 0.84 94 1016.6
20220628043058 22 251 0.0 3.2 0.30 0.81 0.81 94 1016.4
20220628041600 22 246 1.6 6.4 0.28 0.71 0.71 94 1016.1
20220628040057 22 273 1.6 4.8 0.30 0.66 0.66 94 1016.1
20220628034556 22 328 0.0 4.8 0.36 0.61 0.61 93 1016.5